Voltar ao catálogo

RADUGA 8

AtivoMilitarGEO
NORAD 12351·PAYLOAD·🇷🇺 Russia

Lançado Mar 18, 1981 de Baikonur Cosmodrome

Loading…

TLE

AtualizadoSource: Space-Track

Época: Sep 14, 2026, 10:08 UTC

1 12351U 81027A   26257.42259115 -.00000291  00000-0  00000-0 0  9994
2 12351   6.0812 288.5965 0081479 277.1073 250.3085  1.00380203123444

Acompanhe RADUGA 8 em tempo real com AllMySat

Download on the App Store